This is the latest recevied weather packets stored in our database for station/object G0TRT-13. If no packets are shown the sender has not sent any weather packets the latest 10 day(s).
| Time | Temp. | Humidity | Pressure | Rain* | Wind** | Luminosity | Snow |
|---|---|---|---|---|---|---|---|
| 1777480053 | 17.78° C | 32% | 1020.1 hPa | 0 mm | - | - | - |
| 1777479765 | 17.78° C | 32% | 1020.2 hPa | 0 mm | - | - | - |
| 1777479453 | 18.33° C | 31% | 1020.3 hPa | 0 mm | - | - | - |
| 1777479152 | 18.33° C | 31% | 1020.2 hPa | 0 mm | - | - | - |
| 1777478851 | 18.33° C | 32% | 1020.2 hPa | 0 mm | - | - | - |
| 1777478552 | 18.33° C | 31% | 1020 hPa | 0 mm | - | - | - |
| 1777478252 | 18.33° C | 31% | 1020.1 hPa | 0 mm | - | - | - |
| 1777477952 | 18.33° C | 31% | 1020.1 hPa | 0 mm | - | - | - |
| 1777477651 | 18.89° C | 31% | 1020.1 hPa | 0 mm | - | - | - |
| 1777477350 | 18.89° C | 32% | 1020.2 hPa | 0 mm | - | - | - |
| 1777477051 | 18.89° C | 31% | 1020.1 hPa | 0 mm | - | - | - |
| 1777476751 | 18.89° C | 32% | 1020.2 hPa | 0 mm | - | - | - |
| 1777476451 | 18.89° C | 33% | 1020.4 hPa | 0 mm | - | - | - |
| 1777476153 | 19.44° C | 32% | 1020.3 hPa | 0 mm | - | - | - |
| 1777475849 | 18.89° C | 33% | 1020.3 hPa | 0 mm | - | - | - |
| 1777475543 | 18.89° C | 33% | 1020.3 hPa | 0 mm | - | - | - |
| 1777475239 | 18.89° C | 32% | 1020.5 hPa | 0 mm | - | - | - |
| 1777474940 | 18.89° C | 33% | 1020.3 hPa | 0 mm | - | - | - |
| 1777474638 | 18.33° C | 33% | 1020.5 hPa | 0 mm | - | - | - |
| 1777474338 | 18.33° C | 33% | 1020.5 hPa | 0 mm | - | - | - |
| 1777474039 | 18.89° C | 33% | 1020.5 hPa | 0 mm | - | - | - |
| 1777473739 | 18.33° C | 34% | 1020.5 hPa | 0 mm | - | - | - |
| 1777473436 | 18.33° C | 32% | 1020.6 hPa | 0 mm | - | - | - |
| 1777473136 | 18.33° C | 33% | 1020.5 hPa | 0 mm | - | - | - |
| 1777472835 | 18.33° C | 33% | 1020.6 hPa | 0 mm | - | - | - |
* Rain latest hour (hover to see other rain measurements)
** Current wind speed in m/s (hover to see current wind gust speed)